Location: Angwan Shehu
(11.2514°N, 7.4613°E)
Time: 23:45:58
(UTC+00:00)

Vanguard 3 - Pass Details

Date: 31 July 2021
Orbit: 510 x 3260 km, 33.3° (Epoch: 18 September)

Event Time Altitude Azimuth Distance (km) Brightness Sun altitude
Rises 01:08:45 0° 300° (WNW) 7,054 11.9 -52.8°
Reaches altitude 10° 01:13:54 10° 299° (WNW) 5,811 11.4 -52.0°
Enters shadow 01:15:48 14° 298° (WNW) 5,339 11.1 -51.7°
